Weather History for Columbus, OH

Change the Weather History Date:

Tuesday, April 23, 2013

  Actual Average Record
Temperature  
Mean Temperature 60 °F 56 °F  
Max Temperature 72 °F 66 °F 88 °F (1960)
Min Temperature 47 °F 45 °F 23 °F (1986)
Degree Days  
Heating Degree Days 5 10  
Month to date heating degree days 275 310  
Since 1 July heating degree days 4984 5024  
Cooling Degree Days 0 1  
Month to date cooling degree days 23 5  
Year to date cooling degree days 23 6  
Growing Degree Days 9 (Base 50)    
Moisture  
Dew Point 38 °F    
Average Humidity 44    
Maximum Humidity 53    
Minimum Humidity 34    
Precipitation  
Precipitation T in 0.12 in 1.64 in (1882)
Month to date precipitation 2.21 2.61  
Year to date precipitation 9.40 10.61  
Snow  
Snow 0.00 in 0.10 in 0.20 in (2005)
Month to date snowfall T 1.1  
Since 1 July snowfall 41.2 26.7  
Snow Depth 0.00 in    
Sea Level Pressure  
Sea Level Pressure 30.06 in    
Wind  
Wind Speed 10 mph (SSE)    
Max Wind Speed 21 mph    
Max Gust Speed 26 mph    
Visibility 10 miles    
Events Rain    
T = Trace of Precipitation, MM = Missing Value Source: NWS Daily Summary

Daily Weather History Graph

Daily Weather History Graph

Search for Another Location

Airport:

Trip Planner

Search our weather history database for the weather conditions in past years. The results will help you decide how hot, cold, wet, or windy it might be!

Date:

Astronomy

Apr. 23, 2013 Rise Set
Actual Time 6:41 AM EDT 8:18 PM EDT
Civil Twilight 6:13 AM EDT 8:47 PM EDT
Nautical Twilight 5:38 AM EDT 9:21 PM EDT
Astronomical Twilight 5:01 AM EDT 9:58 PM EDT
Moon 6:12 PM EDT (4/23) 5:09 AM EDT (4/23)
Length of Visible Light 14h 33m
Length of Day
13h 36m
Waxing Gibbous, 94% of the Moon is Illuminated
Apr 23
Waxing Gibbous
Apr 25
Full
May 2
Last Quarter
May 9
New
May 18
First Quarter

Hourly Weather History & Observations

Time (EDT) Temp. Dew Point Humidity Pressure Visibility Wind Dir Wind Speed Gust Speed Precip Events Conditions
12:51 AM 54.0 °F 35.1 °F 49% 30.17 in 10.0 mi ESE 6.9 mph - N/A   Clear
1:51 AM 54.0 °F 32.0 °F 43% 30.17 in 10.0 mi ESE 10.4 mph - N/A   Clear
2:51 AM 52.0 °F 30.0 °F 43% 30.16 in 10.0 mi ESE 8.1 mph - N/A   Clear
3:51 AM 50.0 °F 28.9 °F 44% 30.15 in 10.0 mi ESE 8.1 mph - N/A   Clear
4:51 AM 48.9 °F 28.9 °F 46% 30.14 in 10.0 mi ESE 8.1 mph - N/A   Clear
5:51 AM 48.0 °F 28.9 °F 48% 30.14 in 10.0 mi ESE 6.9 mph - N/A   Partly Cloudy
6:51 AM 46.9 °F 30.0 °F 52% 30.12 in 10.0 mi ESE 6.9 mph - N/A   Mostly Cloudy
7:51 AM 51.1 °F 30.0 °F 44% 30.15 in 10.0 mi SE 8.1 mph - N/A   Overcast
8:51 AM 54.0 °F 30.9 °F 41% 30.15 in 10.0 mi ESE 6.9 mph - N/A   Mostly Cloudy
9:51 AM 57.9 °F 33.1 °F 39% 30.15 in 10.0 mi South 9.2 mph - N/A   Scattered Clouds
10:51 AM 62.1 °F 35.1 °F 37% 30.14 in 10.0 mi South 8.1 mph - N/A   Clear
11:51 AM 64.9 °F 37.9 °F 37% 30.11 in 10.0 mi South 9.2 mph - N/A   Clear
12:51 PM 66.9 °F 39.9 °F 37% 30.09 in 10.0 mi SSW 13.8 mph 18.4 mph N/A   Mostly Cloudy
1:51 PM 70.0 °F 42.1 °F 36% 30.05 in 10.0 mi SSW 11.5 mph - N/A   Mostly Cloudy
2:51 PM 72.0 °F 41.0 °F 33% 30.03 in 10.0 mi SW 16.1 mph 25.3 mph N/A   Mostly Cloudy
3:51 PM 72.0 °F 41.0 °F 33% 30.01 in 10.0 mi SSW 15.0 mph 24.2 mph N/A   Partly Cloudy
4:51 PM 72.0 °F 43.0 °F 35% 29.99 in 10.0 mi SW 17.3 mph 23.0 mph N/A   Overcast
5:51 PM 71.1 °F 44.1 °F 38% 29.97 in 10.0 mi SSW 15.0 mph 23.0 mph N/A   Overcast
6:51 PM 70.0 °F 46.0 °F 42% 29.95 in 10.0 mi SSW 10.4 mph - N/A   Mostly Cloudy
7:51 PM 69.1 °F 45.0 °F 42% 29.94 in 10.0 mi SSW 11.5 mph - N/A   Mostly Cloudy
8:51 PM 68.0 °F 46.0 °F 45% 29.93 in 10.0 mi SSW 5.8 mph - N/A   Overcast
9:51 PM 66.9 °F 46.9 °F 49% 29.91 in 10.0 mi South 8.1 mph - N/A   Overcast
10:51 PM 64.0 °F 48.9 °F 58% 29.91 in 8.0 mi SSE 4.6 mph - 0.00 in Rain Light Rain
11:51 PM 63.0 °F 48.0 °F 58% 29.89 in 10.0 mi SSE 9.2 mph - 0.00 in   Overcast